Viroqua, WI

9:07 AM CST on December 16, 2017 (GMT -0600)
Viroqua

Weather History for KY51 - April, 2013

Change the Weather History Date:

Friday, April 26, 2013

  Actual Average (KCMY) Record (KCMY)
Temperature  
Mean Temperature 54 °F -  
Max Temperature 69 °F 65 °F 86 °F (1962)
Min Temperature 39 °F 37 °F 22 °F (2015)
Degree Days  
Heating Degree Days 11    
Growing Degree Days 4 (Base 50)    
Moisture  
Dew Point 37 °F    
Average Humidity 52    
Maximum Humidity 76    
Minimum Humidity 37    
Precipitation  
Precipitation 0.00 in - - ()
Sea Level Pressure  
Sea Level Pressure 30.14 in    
Wind  
Wind Speed 14 mph (South)    
Max Wind Speed 24 mph    
Max Gust Speed 31 mph    
Visibility 10 miles    
Events      
Averages and records for this station are not official NWS values.
T = Trace of Precipitation, MM = Missing Value Source: NWS Daily Summary

Daily Weather History Graph

Daily Weather History Graph

Search for Another Location

Airport or City:

Trip Planner

Search our weather history database for the weather conditions in past years. The results will help you decide how hot, cold, wet, or windy it might be!

Date:

Astronomy

Apr. 26, 2013 Rise Set
Actual Time 6:03 AM CDT 8:00 PM CDT
Civil Twilight 5:32 AM CDT 8:31 PM CDT
Nautical Twilight 4:54 AM CDT 9:09 PM CDT
Astronomical Twilight 4:13 AM CDT 9:50 PM CDT
Moon 9:25 PM CDT (4/26) 6:29 AM CDT (4/26)
Length of Visible Light 14h 59m
Length of Day
13h 57m
Full, 99% of the Moon is Illuminated
Apr 26
Full
May 2
Last Quarter
May 9
New
May 17
First Quarter
May 24
Full

Hourly Weather History & Observations

Time (CDT) Temp. Windchill Dew Point Humidity Pressure Visibility Wind Dir Wind Speed Gust Speed Precip Events Conditions
12:15 AM 41.0 °F 34.7 °F 24.8 °F 53% 30.20 in 10.0 mi SSE 10.4 mph - N/A   Clear
12:35 AM 41.0 °F 35.2 °F 24.8 °F 53% 30.20 in 10.0 mi SSE 9.2 mph - N/A   Clear
12:55 AM 41.0 °F 34.7 °F 23.0 °F 49% 30.20 in 10.0 mi SSE 10.4 mph - N/A   Clear
1:15 AM 41.0 °F 34.3 °F 23.0 °F 49% 30.19 in 10.0 mi SSE 11.5 mph - N/A   Clear
1:35 AM 41.0 °F 34.7 °F 23.0 °F 49% 30.18 in 10.0 mi SSE 10.4 mph - N/A   Clear
1:55 AM 39.2 °F 32.0 °F 23.0 °F 52% 30.19 in 10.0 mi SSE 11.5 mph - N/A   Clear
2:15 AM 41.0 °F 35.2 °F 23.0 °F 49% 30.18 in 10.0 mi SSE 9.2 mph - N/A   Scattered Clouds
2:35 AM 41.0 °F 34.3 °F 24.8 °F 53% 30.18 in 10.0 mi SSE 11.5 mph - N/A   Mostly Cloudy
2:55 AM 41.0 °F 33.1 °F 24.8 °F 53% 30.17 in 10.0 mi SSE 15.0 mph - N/A   Overcast
3:15 AM 41.0 °F 33.5 °F 24.8 °F 53% 30.16 in 10.0 mi SSE 13.8 mph - N/A   Overcast
3:35 AM 41.0 °F 33.9 °F 26.6 °F 57% 30.16 in 10.0 mi South 12.7 mph - N/A   Overcast
3:55 AM 41.0 °F 33.5 °F 28.4 °F 61% 30.16 in 10.0 mi SSE 13.8 mph - N/A   Overcast
4:15 AM 41.0 °F 33.5 °F 28.4 °F 61% 30.15 in 10.0 mi South 13.8 mph 17.3 mph N/A   Overcast
4:35 AM 42.8 °F 35.1 °F 28.4 °F 57% 30.14 in 10.0 mi SSE 16.1 mph - N/A   Overcast
4:55 AM 42.8 °F 35.1 °F 30.2 °F 61% 30.14 in 10.0 mi South 16.1 mph 23.0 mph N/A   Overcast
5:15 AM 44.6 °F 36.6 °F 30.2 °F 57% 30.14 in 10.0 mi South 19.6 mph 24.2 mph N/A   Overcast
5:35 AM 44.6 °F 37.8 °F 30.2 °F 57% 30.15 in 10.0 mi South 15.0 mph - N/A   Overcast
5:55 AM 44.6 °F 37.4 °F 30.2 °F 57% 30.14 in 10.0 mi South 16.1 mph 21.9 mph N/A   Mostly Cloudy
6:15 AM 44.6 °F 38.1 °F 32.0 °F 61% 30.14 in 10.0 mi South 13.8 mph 20.7 mph N/A   Scattered Clouds
6:35 AM 42.8 °F 34.8 °F 32.0 °F 66% 30.13 in 10.0 mi South 17.3 mph 23.0 mph N/A   Clear
6:55 AM 44.6 °F 36.9 °F 32.0 °F 61% 30.13 in 10.0 mi South 18.4 mph 25.3 mph N/A   Clear
7:15 AM 44.6 °F 37.4 °F 32.0 °F 61% 30.13 in 10.0 mi South 16.1 mph 23.0 mph N/A   Clear
7:35 AM 44.6 °F 36.6 °F 32.0 °F 61% 30.13 in 10.0 mi South 19.6 mph 24.2 mph N/A   Clear
7:55 AM 46.4 °F 39.2 °F 32.0 °F 57% 30.13 in 10.0 mi South 18.4 mph - N/A   Clear
8:15 AM 46.4 °F 40.4 °F 32.0 °F 57% 30.14 in 10.0 mi South 13.8 mph 18.4 mph N/A   Clear
8:35 AM 48.2 °F - 33.8 °F 58% 30.14 in 10.0 mi South 12.7 mph 19.6 mph N/A   Clear
8:55 AM 50.0 °F - 33.8 °F 54% 30.14 in 10.0 mi South 18.4 mph 23.0 mph N/A   Mostly Cloudy
9:15 AM 51.8 °F - 33.8 °F 50% 30.14 in 10.0 mi South 15.0 mph 20.7 mph N/A   Mostly Cloudy
9:35 AM 53.6 °F - 35.6 °F 51% 30.13 in 10.0 mi SSW 16.1 mph 20.7 mph N/A   Clear
9:55 AM 55.4 °F - 35.6 °F 47% 30.13 in 10.0 mi South 16.1 mph 24.2 mph N/A   Clear
10:15 AM 57.2 °F - 35.6 °F 44% 30.13 in 10.0 mi SSW 17.3 mph - N/A   Clear
10:35 AM 59.0 °F - 35.6 °F 42% 30.13 in 10.0 mi SSW 19.6 mph 25.3 mph N/A   Clear
10:55 AM 59.0 °F - 35.6 °F 42% 30.13 in 10.0 mi SSW 18.4 mph 26.5 mph N/A   Scattered Clouds
11:15 AM 60.8 °F - 37.4 °F 42% 30.13 in 10.0 mi SSW 21.9 mph 27.6 mph N/A   Scattered Clouds
11:35 AM 60.8 °F - 37.4 °F 42% 30.13 in 10.0 mi SSW 19.6 mph 25.3 mph N/A   Clear
11:55 AM 62.6 °F - 39.2 °F 42% 30.13 in 10.0 mi SSW 17.3 mph 25.3 mph N/A   Clear
12:15 PM 64.4 °F - 39.2 °F 40% 30.13 in 10.0 mi SSW 15.0 mph 20.7 mph N/A   Clear
12:35 PM 64.4 °F - 39.2 °F 40% 30.12 in 10.0 mi SSW 15.0 mph 23.0 mph N/A   Scattered Clouds
12:55 PM 64.4 °F - 39.2 °F 40% 30.12 in 10.0 mi SSW 20.7 mph 28.8 mph N/A   Scattered Clouds
1:15 PM 66.2 °F - 39.2 °F 37% 30.12 in 10.0 mi SW 23.0 mph 28.8 mph N/A   Clear
1:35 PM 64.4 °F - 41.0 °F 42% 30.11 in 10.0 mi SSW 20.7 mph 26.5 mph N/A   Scattered Clouds
1:55 PM 68.0 °F - 41.0 °F 37% 30.11 in 10.0 mi SW 19.6 mph 26.5 mph N/A   Scattered Clouds
2:15 PM 68.0 °F - 41.0 °F 37% 30.11 in 10.0 mi SW 18.4 mph 25.3 mph N/A   Scattered Clouds
2:35 PM 68.0 °F - 41.0 °F 37% 30.11 in 10.0 mi SW 23.0 mph 31.1 mph N/A   Scattered Clouds
2:55 PM 68.0 °F - 41.0 °F 37% 30.10 in 10.0 mi WSW 20.7 mph 27.6 mph N/A   Scattered Clouds
3:15 PM 68.0 °F - 42.8 °F 40% 30.10 in 10.0 mi SW 24.2 mph 29.9 mph N/A   Mostly Cloudy
3:35 PM 69.8 °F - 42.8 °F 38% 30.09 in 10.0 mi SSW 20.7 mph 29.9 mph N/A   Scattered Clouds
3:55 PM 68.0 °F - 42.8 °F 40% 30.09 in 10.0 mi SSW 24.2 mph 28.8 mph N/A   Mostly Cloudy
4:15 PM 68.0 °F - 42.8 °F 40% 30.10 in 10.0 mi SSW 17.3 mph 29.9 mph N/A   Mostly Cloudy
4:35 PM 66.2 °F - 44.6 °F 46% 30.10 in 10.0 mi SSW 23.0 mph 29.9 mph N/A   Mostly Cloudy
4:55 PM 68.0 °F - 44.6 °F 43% 30.10 in 10.0 mi SSW 21.9 mph 31.1 mph N/A   Mostly Cloudy
5:15 PM 68.0 °F - 44.6 °F 43% 30.10 in 10.0 mi SW 20.7 mph 27.6 mph N/A   Scattered Clouds
5:35 PM 66.2 °F - 44.6 °F 46% 30.10 in 10.0 mi SW 13.8 mph 25.3 mph N/A   Clear
5:55 PM 64.4 °F - 44.6 °F 49% 30.10 in 10.0 mi SW 18.4 mph 23.0 mph N/A   Scattered Clouds
6:15 PM 64.4 °F - 44.6 °F 49% 30.11 in 10.0 mi SSW 16.1 mph 20.7 mph N/A   Mostly Cloudy
6:35 PM 62.6 °F - 44.6 °F 52% 30.11 in 10.0 mi SW 13.8 mph - N/A   Scattered Clouds
6:55 PM 62.6 °F - 44.6 °F 52% 30.11 in 10.0 mi SSW 16.1 mph 24.2 mph N/A   Mostly Cloudy
7:15 PM 62.6 °F - 44.6 °F 52% 30.12 in 10.0 mi SSW 13.8 mph - N/A   Scattered Clouds
7:35 PM 60.8 °F - 44.6 °F 55% 30.13 in 10.0 mi SSW 13.8 mph - N/A   Clear
7:55 PM 59.0 °F - 44.6 °F 59% 30.13 in 10.0 mi SSW 11.5 mph - N/A   Clear
8:15 PM 59.0 °F - 44.6 °F 59% 30.14 in 10.0 mi South 10.4 mph - N/A   Clear
8:35 PM 57.2 °F - 44.6 °F 63% 30.14 in 10.0 mi SSW 10.4 mph - N/A   Clear
8:55 PM 55.4 °F - 44.6 °F 67% 30.15 in 10.0 mi South 9.2 mph - N/A   Clear
9:15 PM 55.4 °F - 42.8 °F 63% 30.16 in 10.0 mi South 8.1 mph - N/A   Clear
9:35 PM 53.6 °F - 42.8 °F 67% 30.16 in 10.0 mi South 6.9 mph - N/A   Clear
9:55 PM 53.6 °F - 42.8 °F 67% 30.17 in 10.0 mi South 8.1 mph - N/A   Clear
10:15 PM 55.4 °F - 42.8 °F 63% 30.18 in 10.0 mi South 9.2 mph - N/A   Clear
10:35 PM 53.6 °F - 42.8 °F 67% 30.19 in 10.0 mi South 5.8 mph - N/A   Clear
10:55 PM 51.8 °F - 42.8 °F 71% 30.19 in 10.0 mi SSW 5.8 mph - N/A   Scattered Clouds
11:15 PM 51.8 °F - 42.8 °F 71% 30.19 in 10.0 mi SSW 10.4 mph - N/A   Clear
11:35 PM 51.8 °F - 42.8 °F 71% 30.19 in 10.0 mi SSW 10.4 mph - N/A   Clear
11:55 PM 51.8 °F - 44.6 °F 76% 30.19 in 10.0 mi SSW 10.4 mph - N/A   Clear